Location: Unspecified
(41.1637°N, 24.2901°E)
Time: 05:14:54
(UTC+01:00)

ISS - Pass Details

Date: 14 February 2026
Orbit: 413 x 428 km, 51.6° (Epoch: 18 February)

Event Time Altitude Azimuth Distance (km) Brightness Sun altitude
Exits shadow 04:47:57 26° 204° (SSW) 866 -2.4 -17.7°
Maximum altitude 04:49:33 51° 139° (SE) 531 -3.0 -17.4°
Drops below altitude 10° 04:52:48 10° 63° (ENE) 1,487 -0.1 -16.8°
Sets 04:54:55 0° 58° (ENE) 2,351 1.0 -16.4°
